Voltar ao catálogo

CZ-6A DEB

AtivoPO
NORAD 61097·DEBRIS·🇨🇳 China

Lançado Aug 6, 2024 de Taiyuan Satellite Launch Center

Loading…

Próximas Passagens (próximas 24 horas)

TLE

AtualizadoSource: Space-Track

Época: Sep 14, 2026, 10:47 UTC

1 61097U 24140NP  26257.44978086  .00001631  00000-0  36135-3 0  9994
2 61097  89.0132 261.6177 0101128 333.6471  25.9612 14.53586511108359

Acompanhe CZ-6A DEB em tempo real com AllMySat

Download on the App Store